[[{"header":{"parameterUnit":"m.s-1","parameterCategory":1,"la1":30.2991,"la2":30.254,"lo1":-89.0895,"lo2":-89.0444,"dy":0.0017,"dx":0.0017,"nx":28,"ny":28,"refTime":"2025-12-26T09:00:00:Z","depth":0,"parameterNumber":2,"parameterNumberName":"U-component_of_WINDS"},"data":[0,0,0,0,0,0,0,0,0,0,0,0,0,0,0,0,0,0,0,0,0,0,0,0,0,0,0,0,0,0,0,0,0,0,0,0,0,0,0,0,0,0,0,0,0,0,0,0,0,0,0,0,0,0,0,0,0,0,-0.1159,-0.1157,0,-0.101,-0.1008,-0.1007,-0.0954,-0.0954,-0.0955,-0.0955,-0.0801,-0.0796,-0.0791,0,0,0,0,0,0,0,0,0,0,0,0,0,-0.1397,-0.1393,-0.1159,-0.1157,-0.1155,-0.101,-0.1008,-0.1006,-0.0954,-0.0954,-0.0955,-0.0956,-0.0802,-0.0797,-0.0791,0,0,0,0,0,0,0,0,0,0,0,0,0,-0.1275,-0.1391,-0.1159,-0.1112,-0.1106,-0.1011,-0.1008,-0.1006,-0.0954,-0.0954,-0.0955,-0.0956,-0.0804,-0.0797,-0.079,-0.0731,0,0,-0.0769,-0.0766,0,0,0,0,0,0,0,0,-0.1282,-0.1266,-0.1121,-0.1115,-0.1108,-0.1001,-0.1035,-0.0913,-0.0953,-0.1011,-0.0955,-0.0956,-0.0867,-0.0855,-0.0825,-0.0723,-0.0717,-0.0768,-0.0764,-0.0761,-0.0759,0,0,0,0,0,0,0,-0.1291,-0.1273,-0.11,-0.1119,-0.1111,-0.1097,-0.1081,-0.1012,-0.0936,-0.1006,-0.1002,-0.0985,-0.0863,-0.0832,-0.0821,-0.0714,-0.0769,-0.0762,-0.0758,-0.0755,-0.0556,-0.0555,0,0,0,0,0,0,-0.1307,-0.128,-0.1105,-0.1096,-0.1199,-0.1092,-0.1074,-0.1035,-0.0937,-0.0923,-0.0985,-0.0984,-0.0843,-0.0829,-0.0815,-0.0738,-0.0761,-0.0755,-0.0751,-0.0557,-0.0556,-0.0555,0,0,0,0,0,0,-0.1313,-0.1292,-0.1111,-0.1186,-0.1162,-0.1087,-0.1044,-0.1031,-0.0999,-0.092,-0.0906,-0.0966,-0.0843,-0.0825,-0.0752,-0.0732,-0.0752,-0.0745,-0.0558,-0.0557,-0.0555,-0.0584,0,0,0,0,0,0,-0.132,-0.1294,-0.1271,-0.1186,-0.1159,-0.1051,-0.1042,-0.1028,-0.0988,-0.0985,-0.0899,-0.0886,-0.0842,-0.0763,-0.0745,-0.0723,-0.074,-0.056,-0.0558,-0.0556,-0.0584,-0.0583,-0.0583,0,0,0,0,0,-0.1328,-0.1285,-0.127,-0.125,-0.1128,-0.105,-0.1034,-0.0985,-0.0987,-0.0962,-0.0912,-0.0889,-0.0737,-0.0756,-0.0735,-0.0711,-0.0561,-0.0558,-0.0556,-0.0585,-0.0584,-0.0583,0,0,0,0,0,0,-0.1369,-0.1273,-0.1256,-0.1184,-0.1126,-0.1041,-0.1009,-0.0986,-0.0925,-0.0924,-0.0866,-0.0847,-0.0779,-0.0737,-0.076,-0.0647,-0.0648,-0.0641,-0.0677,-0.0675,-0.0674,-0.0685,-0.0734,0,0,0,0,0,-0.137,-0.1315,-0.1234,-0.1178,-0.115,-0.1085,-0.1049,-0.1016,-0.0953,-0.0928,-0.0872,-0.0811,-0.0749,-0.071,-0.0649,-0.0579,-0.0559,-0.0551,-0.0551,-0.055,-0.0545,-0.0504,-0.0499,-0.0546,-0.0546,-0.0546,0,0,-0.137,-0.1311,-0.128,-0.1185,-0.1136,-0.1079,-0.1064,-0.1005,-0.0962,-0.0919,-0.0846,-0.0803,-0.0731,-0.0659,-0.0625,-0.0623,-0.0528,-0.0547,-0.0547,-0.0542,-0.0501,-0.0496,-0.0492,-0.0545,-0.0545,-0.0545,0,0,-0.1343,-0.1293,-0.1241,-0.1192,-0.1118,-0.1075,-0.1063,-0.0982,-0.0952,-0.0878,-0.0844,-0.0792,-0.0688,-0.0638,-0.0599,-0.0552,-0.0529,-0.0534,-0.0529,-0.049,-0.0486,-0.0482,-0.0465,-0.0459,-0.0529,-0.0529,-0.0529,0,-0.1353,-0.1267,-0.1217,-0.1159,-0.1118,-0.1077,-0.1023,-0.0978,-0.0888,-0.086,-0.086,-0.0727,-0.0676,-0.0591,-0.058,-0.055,-0.0534,-0.0543,-0.0491,-0.0486,-0.0482,-0.0465,-0.0458,-0.053,-0.053,-0.053,-0.053,0,-0.1282,-0.1223,-0.119,-0.1104,-0.1059,-0.1004,-0.0945,-0.0906,-0.0878,-0.0835,-0.076,-0.0698,-0.0623,-0.0601,-0.0572,-0.0512,-0.0513,-0.0502,-0.0501,-0.048,-0.0462,-0.0455,-0.0532,-0.0532,-0.0531,-0.0531,0,0,-0.1275,-0.1163,-0.1151,-0.1112,-0.1027,-0.098,-0.0923,-0.0851,-0.0818,-0.0757,-0.0707,-0.062,-0.0609,-0.0565,-0.0531,-0.0496,-0.0462,-0.049,-0.0487,-0.0486,-0.0391,-0.0398,-0.0391,-0.0447,-0.0445,-0.0444,-0.0396,0,-0.1235,-0.1131,-0.1085,-0.1002,-0.0946,-0.0906,-0.0856,-0.0799,-0.0757,-0.0704,-0.0657,-0.0596,-0.0588,-0.0561,-0.0525,-0.0474,-0.0442,-0.0477,-0.0398,-0.0396,-0.0416,-0.0382,-0.039,-0.0348,-0.0389,-0.0388,-0.0387,0,-0.1175,-0.1114,-0.1026,-0.0948,-0.0923,-0.0879,-0.0808,-0.0758,-0.0692,-0.0664,-0.0615,-0.0582,-0.0519,-0.0524,-0.0436,-0.0461,-0.0426,-0.0397,-0.0394,-0.0383,-0.039,-0.037,-0.0333,-0.0326,-0.0376,-0.0377,-0.0378,0,-0.1177,-0.1074,-0.1007,-0.0975,-0.0882,-0.0852,-0.0812,-0.0747,-0.0706,-0.0644,-0.0617,-0.055,-0.0512,-0.046,-0.0409,-0.0417,-0.0326,-0.0327,-0.03,-0.0302,-0.0282,-0.0284,-0.0238,-0.0262,-0.0262,-0.0262,-0.0262,0,-0.1137,-0.1084,-0.1007,-0.0966,-0.0905,-0.0852,-0.0794,-0.0751,-0.0693,-0.0642,-0.0604,-0.0557,-0.0494,-0.0439,-0.0399,-0.0332,-0.0316,-0.0291,-0.028,-0.0293,-0.0296,-0.0269,-0.027,-0.026,-0.0261,-0.0261,-0.0261,0,-0.1129,-0.1075,-0.1,-0.0918,-0.0897,-0.0856,-0.0785,-0.0744,-0.0701,-0.0637,-0.0619,-0.0551,-0.0485,-0.0429,-0.0342,-0.0315,-0.0245,-0.0234,-0.0267,-0.0262,-0.0238,-0.0241,-0.0172,-0.0159,-0.0194,-0.0193,-0.0193,0,-0.1106,-0.1064,-0.0979,-0.0942,-0.0903,-0.0845,-0.0803,-0.0749,-0.0707,-0.0629,-0.0597,-0.0527,-0.0469,-0.0364,-0.0306,-0.0239,-0.0225,-0.0206,-0.0214,-0.0228,-0.0223,-0.0226,-0.0221,-0.0204,-0.0204,-0.0204,-0.0204,0,-0.1071,-0.1046,-0.0988,-0.092,-0.0872,-0.0816,-0.0759,-0.0731,-0.0667,-0.0622,-0.0554,-0.0508,-0.0419,-0.035,-0.0277,-0.0235,-0.0208,-0.0202,-0.0192,-0.0204,-0.0225,-0.0212,-0.0264,-0.0203,-0.0204,-0.0204,-0.0204,-0.0204,-0.1053,-0.1014,-0.0948,-0.0884,-0.0836,-0.0783,-0.074,-0.0692,-0.0634,-0.0557,-0.0529,-0.0459,-0.0393,-0.0292,-0.025,-0.0193,-0.019,-0.0176,-0.0172,-0.0169,-0.017,-0.0235,-0.018,-0.018,-0.018,-0.018,-0.018,0,-0.1015,-0.0971,-0.0913,-0.0834,-0.0784,-0.0765,-0.0701,-0.0659,-0.0598,-0.054,-0.0483,-0.0404,-0.0337,-0.0275,-0.0205,-0.0172,-0.0158,-0.0155,-0.0156,-0.0146,-0.0178,-0.0193,-0.0167,-0.0167,-0.0167,-0.0167,-0.0167,-0.0167,-0.099,-0.0922,-0.089,-0.0798,-0.0753,-0.0684,-0.0649,-0.06,-0.0553,-0.0467,-0.0411,-0.0371,-0.031,-0.0236,-0.0173,-0.0157,-0.0132,-0.0132,-0.0112,-0.0142,-0.0144,-0.0146,-0.016,-0.0128,-0.0128,-0.0085,-0.0085,-0.0084]},{"header":{"parameterUnit":"m.s-1","parameterCategory":1,"la1":30.2991,"la2":30.254,"lo1":-89.0895,"lo2":-89.0444,"dy":0.0017,"dx":0.0017,"nx":28,"ny":28,"refTime":"2025-12-26T09:00:00:Z","depth":0,"parameterNumber":3,"parameterNumberName":"V-component_of_WINDS"},"data":[0,0,0,0,0,0,0,0,0,0,0,0,0,0,0,0,0,0,0,0,0,0,0,0,0,0,0,0,0,0,0,0,0,0,0,0,0,0,0,0,0,0,0,0,0,0,0,0,0,0,0,0,0,0,0,0,0,0,2.8117,2.8117,0,2.8115,2.8115,2.8115,2.806,2.8059,2.8057,2.8056,2.8054,2.8055,2.8056,0,0,0,0,0,0,0,0,0,0,0,0,0,2.807,2.8072,2.8117,2.8117,2.8117,2.8115,2.8115,2.8115,2.806,2.8059,2.8057,2.8055,2.8053,2.8055,2.8056,0,0,0,0,0,0,0,0,0,0,0,0,0,2.8082,2.8072,2.8117,2.8089,2.8087,2.8115,2.8115,2.8115,2.8061,2.8059,2.8057,2.8055,2.8053,2.8055,2.8057,2.8111,0,0,2.8062,2.8063,0,0,0,0,0,0,0,0,2.8081,2.8084,2.8093,2.8091,2.8088,2.8086,2.8098,2.8114,2.8061,2.8071,2.8056,2.8053,2.8066,2.8067,2.8071,2.8111,2.8111,2.8063,2.8064,2.8065,2.8065,0,0,0,0,0,0,0,2.8081,2.8084,2.8116,2.8093,2.809,2.8076,2.8076,2.8101,2.808,2.807,2.8066,2.8066,2.8064,2.807,2.8071,2.8111,2.8063,2.8064,2.8065,2.8066,2.8198,2.82,0,0,0,0,0,0,2.8084,2.8083,2.8116,2.8116,2.808,2.8079,2.8078,2.8089,2.808,2.8077,2.8068,2.8064,2.8067,2.8069,2.807,2.8136,2.8065,2.8066,2.8067,2.8196,2.8199,2.8201,0,0,0,0,0,0,2.8083,2.8087,2.8116,2.8099,2.8101,2.8082,2.8094,2.809,2.8095,2.8079,2.8075,2.8077,2.8066,2.8068,2.8102,2.8135,2.8067,2.8069,2.8193,2.8197,2.82,2.8267,0,0,0,0,0,0,2.8082,2.8087,2.8108,2.8099,2.8102,2.8148,2.8096,2.8091,2.8099,2.8093,2.8086,2.8083,2.8064,2.81,2.8104,2.8137,2.807,2.819,2.8195,2.8199,2.8262,2.8272,2.8281,0,0,0,0,0,2.8081,2.8126,2.811,2.8114,2.8128,2.815,2.8152,2.8129,2.8101,2.8122,2.8112,2.8083,2.813,2.8104,2.8108,2.8142,2.8188,2.8193,2.8198,2.8257,2.827,2.8281,0,0,0,0,0,0,2.8139,2.8125,2.8106,2.815,2.8152,2.8141,2.8167,2.8143,2.8153,2.8147,2.8118,2.8117,2.8156,2.8152,2.8122,2.8195,2.8154,2.8161,2.8197,2.8209,2.8219,2.822,2.8072,0,0,0,0,0,2.8157,2.8177,2.8163,2.8203,2.8205,2.8186,2.8195,2.8177,2.8178,2.8178,2.817,2.8171,2.8187,2.8197,2.821,2.826,2.8258,2.8285,2.8295,2.8303,2.831,2.8338,2.835,2.8218,2.8218,2.8218,0,0,2.8194,2.8189,2.8203,2.8215,2.8214,2.8236,2.8187,2.8211,2.8227,2.8181,2.8215,2.8209,2.8208,2.8251,2.8269,2.8249,2.8345,2.831,2.8316,2.8319,2.8344,2.8357,2.8368,2.8222,2.8221,2.8221,0,0,2.8274,2.8272,2.8306,2.8307,2.8307,2.8293,2.8302,2.8294,2.8289,2.8322,2.8289,2.8306,2.8332,2.8334,2.8338,2.842,2.8394,2.8424,2.8477,2.8504,2.8515,2.8524,2.8555,2.8566,2.843,2.8431,2.8431,0,2.8321,2.8352,2.8327,2.8354,2.8361,2.8321,2.8356,2.8357,2.8361,2.8367,2.8343,2.8376,2.8373,2.8417,2.8437,2.8441,2.845,2.8426,2.8515,2.8524,2.8532,2.8562,2.8573,2.8434,2.8434,2.8434,2.8433,0,2.8411,2.8433,2.8461,2.8467,2.8477,2.8507,2.8487,2.8499,2.8481,2.847,2.8504,2.8499,2.8511,2.8519,2.8501,2.8561,2.8548,2.852,2.8479,2.8549,2.8576,2.8587,2.844,2.8439,2.8437,2.8436,0,0,2.8529,2.8521,2.8532,2.8535,2.8532,2.8549,2.8578,2.859,2.8602,2.8606,2.8631,2.8654,2.8628,2.8633,2.8614,2.8638,2.8706,2.8607,2.8607,2.8628,2.8774,2.8798,2.8811,2.8688,2.869,2.8691,2.8775,0,2.8609,2.866,2.8637,2.869,2.8711,2.8674,2.8699,2.87,2.8691,2.8707,2.8696,2.8715,2.8678,2.8681,2.8703,2.8693,2.8735,2.8686,2.8712,2.8713,2.8716,2.8825,2.8849,2.8929,2.8785,2.8787,2.8788,0,2.8709,2.8718,2.8774,2.8769,2.8776,2.88,2.881,2.8826,2.8826,2.8818,2.8824,2.88,2.8828,2.8785,2.8825,2.8792,2.8801,2.8798,2.88,2.8804,2.8757,2.8834,2.8953,2.8966,2.8805,2.8803,2.8802,0,2.8793,2.8819,2.8856,2.8859,2.8853,2.8871,2.8869,2.8868,2.8877,2.8885,2.8891,2.8902,2.8909,2.8919,2.8899,2.8869,2.8942,2.8896,2.8937,2.8938,2.8956,2.8956,2.9081,2.8957,2.8957,2.8957,2.8957,0,2.8886,2.8922,2.8894,2.8918,2.8957,2.8931,2.897,2.8964,2.8963,2.8984,2.8951,2.8972,2.8943,2.8961,2.8944,2.8981,2.8984,2.8978,2.8974,2.8983,2.8984,2.8991,2.8986,2.896,2.8959,2.8959,2.8958,0,2.8988,2.897,2.9009,2.9,2.8999,2.9029,2.9021,2.9042,2.903,2.9058,2.9063,2.9045,2.9064,2.9044,2.9062,2.9051,2.9101,2.9087,2.9102,2.9099,2.9142,2.9139,2.9278,2.9296,2.9158,2.9159,2.916,0,2.905,2.9077,2.9072,2.9084,2.9085,2.9105,2.9114,2.9089,2.91,2.9103,2.9125,2.9141,2.9154,2.9187,2.9175,2.9189,2.9177,2.9224,2.9179,2.9187,2.9181,2.9181,2.9184,2.9235,2.9236,2.9237,2.9238,0,2.9163,2.9153,2.9168,2.9182,2.9194,2.9203,2.9209,2.9221,2.9195,2.9209,2.9229,2.9239,2.9258,2.9276,2.9286,2.9283,2.9258,2.9253,2.9263,2.9274,2.9283,2.9281,2.913,2.925,2.9249,2.9248,2.9248,2.9247,2.9248,2.9272,2.9272,2.9291,2.9293,2.93,2.932,2.9311,2.9327,2.9342,2.9325,2.935,2.935,2.9361,2.9362,2.9382,2.9362,2.9376,2.938,2.9385,2.9393,2.9277,2.9383,2.9382,2.9382,2.9382,2.9382,0,2.9362,2.936,2.9378,2.9388,2.9404,2.9377,2.9382,2.9397,2.942,2.9422,2.9435,2.9459,2.9476,2.9466,2.948,2.9498,2.9487,2.9503,2.9503,2.9503,2.9409,2.9399,2.9512,2.9512,2.9512,2.9512,2.9512,2.9512,2.9423,2.9462,2.9452,2.9492,2.9489,2.9515,2.9521,2.9527,2.9529,2.9557,2.9572,2.9565,2.9562,2.9577,2.9591,2.9588,2.9596,2.9617,2.961,2.9522,2.951,2.9497,2.9489,2.9618,2.9619,2.9703,2.9704,2.9705]}]]